Terminal Aerodrome Forecast
Issued by NWS Cheyenne, WY

Home | Current Version | Previous Version | Text Only | Print | Product List | Glossary On
Versions: 1 2 3 4 5 6 7 8 9 10 11 12 13 14 15 16 17 18 19 20 21 22 23 24 25 26 27 28 29 30 31 32 33 34 35 36 37 38 39 40 41 42 43
000
FTUS45 KCYS 262320
TAFCYS
TAF
KCYS 262320Z 2700/2724 22008KT P6SM BKN060
     FM270900 28015G25KT P6SM BKN100=

USA.gov is the U.S. government's official web portal to all federal, state and local government web resources and services.